| time (UTC) | temp F | wind direction | speed MPH | gust MPH | rain 1hr in | rain 24hr in | rain mn in | humidity % | barometer mb |
| 20260508205639 | 57 | 308 | 10.0 | 13.0 | 0.00 | 0.03 | 0.03 | 82 | 1008.5 |
| 20260508205136 | 57 | 315 | 9.0 | 14.0 | 0.00 | 0.03 | 0.03 | 82 | 1008.4 |
| 20260508204632 | 57 | 312 | 10.0 | 11.0 | 0.07 | 0.03 | 0.03 | 82 | 1008.3 |
| 20260508204128 | 57 | 333 | 9.0 | 11.0 | 0.07 | 0.03 | 0.03 | 82 | 1008.6 |
| 20260508203624 | 57 | 330 | 10.0 | 14.0 | 0.00 | 0.02 | 0.02 | 82 | 1008.4 |
| 20260508203121 | 58 | 331 | 12.0 | 14.0 | 0.00 | 0.02 | 0.02 | 77 | 1008.8 |
| 20260508202617 | 58 | 307 | 14.0 | 19.0 | 0.00 | 0.02 | 0.02 | 72 | 1008.7 |
| 20260508202114 | 58 | 297 | 11.0 | 19.0 | 0.00 | 0.02 | 0.02 | 72 | 1008.6 |
| 20260508201611 | 58 | 312 | 14.0 | 21.0 | 0.00 | 0.02 | 0.02 | 70 | 1008.4 |
| 20260508201108 | 59 | 314 | 19.0 | 22.0 | 0.05 | 0.02 | 0.02 | 71 | 1008.7 |
| 20260508200605 | 62 | 273 | 17.0 | 22.0 | 0.00 | 0.01 | 0.01 | 64 | 1008.8 |
| 20260508200101 | 64 | 261 | 12.0 | 19.0 | 0.00 | 0.01 | 0.01 | 55 | 1008.3 |
| 20260508195557 | 64 | 256 | 15.0 | 17.0 | 0.00 | 0.01 | 0.01 | 53 | 1008.0 |
| 20260508195053 | 65 | 256 | 13.0 | 19.0 | 0.00 | 0.01 | 0.01 | 52 | 1007.8 |
| 20260508194550 | 65 | 247 | 15.0 | 21.0 | 0.00 | 0.01 | 0.01 | 51 | 1007.9 |
| 20260508194048 | 64 | 249 | 9.0 | 14.0 | 0.00 | 0.01 | 0.01 | 52 | 1007.8 |
| 20260508193544 | 64 | 241 | 15.0 | 24.0 | 0.00 | 0.01 | 0.01 | 50 | 1008.1 |
| 20260508193041 | 65 | 220 | 15.0 | 24.0 | 0.00 | 0.01 | 0.01 | 52 | 1008.1 |
| 20260508192538 | 65 | 255 | 14.0 | 16.0 | 0.00 | 0.01 | 0.01 | 53 | 1008.1 |
| 20260508192035 | 65 | 208 | 14.0 | 15.0 | 0.00 | 0.01 | 0.01 | 53 | 1008.2 |
| 20260508191531 | 65 | 210 | 13.0 | 16.0 | 0.00 | 0.01 | 0.01 | 52 | 1008.3 |
| 20260508191028 | 65 | 249 | 11.0 | 14.0 | 0.00 | 0.01 | 0.01 | 53 | 1008.5 |
| 20260508190525 | 65 | 246 | 13.0 | 22.0 | 0.00 | 0.01 | 0.01 | 52 | 1008.4 |
| 20260508190021 | 65 | 240 | 9.0 | 19.0 | 0.00 | 0.01 | 0.01 | 52 | 1008.7 |
| 20260508185519 | 65 | 233 | 9.0 | 11.0 | 0.00 | 0.01 | 0.01 | 52 | 1008.8 |
| 20260508185017 | 64 | 251 | 14.0 | 17.0 | 0.00 | 0.01 | 0.01 | 52 | 1008.7 |
| 20260508184514 | 64 | 235 | 12.0 | 15.0 | 0.00 | 0.01 | 0.01 | 53 | 1008.8 |
| 20260508184011 | 64 | 263 | 14.0 | 16.0 | 0.00 | 0.01 | 0.01 | 53 | 1009.0 |
| 20260508183507 | 64 | 265 | 9.0 | 14.0 | 0.00 | 0.01 | 0.01 | 54 | 1009.0 |
| 20260508183003 | 64 | 261 | 12.0 | 17.0 | 0.00 | 0.01 | 0.01 | 54 | 1008.9 |
| 20260508182500 | 64 | 274 | 10.0 | 14.0 | 0.00 | 0.01 | 0.01 | 53 | 1009.1 |
| 20260508181955 | 64 | 252 | 10.0 | 19.0 | 0.00 | 0.01 | 0.01 | 52 | 1009.1 |
| 20260508181451 | 65 | 267 | 14.0 | 17.0 | 0.00 | 0.01 | 0.01 | 52 | 1008.8 |
| 20260508180949 | 65 | 238 | 12.0 | 17.0 | 0.00 | 0.01 | 0.01 | 51 | 1009.0 |
| 20260508180446 | 65 | 242 | 9.0 | 15.0 | 0.00 | 0.01 | 0.01 | 52 | 1009.0 |
| 20260508175942 | 65 | 258 | 9.0 | 16.0 | 0.00 | 0.01 | 0.01 | 52 | 1008.8 |
| 20260508175438 | 64 | 245 | 10.0 | 16.0 | 0.00 | 0.01 | 0.01 | 53 | 1009.5 |
| 20260508174936 | 64 | 258 | 13.0 | 16.0 | 0.00 | 0.01 | 0.01 | 55 | 1009.3 |
| 20260508174434 | 63 | 245 | 9.0 | 9.0 | 0.00 | 0.01 | 0.01 | 54 | 1009.7 |
| 20260508173930 | 63 | 270 | 10.0 | 14.0 | 0.00 | 0.01 | 0.01 | 55 | 1010.0 |
| 20260508173428 | 63 | 265 | 6.0 | 14.0 | 0.00 | 0.01 | 0.01 | 56 | 1009.8 |
| 20260508172923 | 63 | 253 | 9.0 | 16.0 | 0.00 | 0.01 | 0.01 | 54 | 1010.1 |
| 20260508172421 | 63 | 267 | 11.0 | 16.0 | 0.00 | 0.01 | 0.01 | 52 | 1010.0 |
| 20260508171917 | 63 | 252 | 9.0 | 13.0 | 0.00 | 0.01 | 0.01 | 52 | 1010.1 |
| 20260508171413 | 62 | 226 | 16.0 | 19.0 | 0.00 | 0.01 | 0.01 | 52 | 1010.1 |
| 20260508170910 | 62 | 214 | 13.0 | 14.0 | 0.00 | 0.01 | 0.01 | 53 | 1010.0 |
| 20260508170408 | 62 | 248 | 9.0 | 13.0 | 0.00 | 0.01 | 0.01 | 53 | 1010.5 |
| 20260508165904 | 62 | 224 | 6.0 | 9.0 | 0.00 | 0.01 | 0.01 | 53 | 1010.8 |
| 20260508165402 | 61 | 257 | 8.0 | 10.0 | 0.00 | 0.01 | 0.01 | 55 | 1010.7 |
| 20260508164857 | 61 | 272 | 3.0 | 11.0 | 0.00 | 0.01 | 0.01 | 54 | 1010.6 |
| 20260508164355 | 60 | 239 | 8.0 | 11.0 | 0.00 | 0.01 | 0.01 | 58 | 1011.3 |
| 20260508163852 | 60 | 284 | 9.0 | 14.0 | 0.00 | 0.01 | 0.01 | 56 | 1011.3 |
| 20260508163350 | 60 | 275 | 10.0 | 14.0 | 0.00 | 0.01 | 0.01 | 55 | 1011.5 |
| 20260508162845 | 60 | 280 | 9.0 | 11.0 | 0.00 | 0.01 | 0.01 | 57 | 1011.4 |
| 20260508162342 | 60 | 290 | 8.0 | 13.0 | 0.00 | 0.01 | 0.01 | 55 | 1011.5 |
| 20260508161840 | 60 | 254 | 10.0 | 15.0 | 0.00 | 0.01 | 0.01 | 55 | 1011.6 |
| 20260508161337 | 60 | 253 | 11.0 | 11.0 | 0.00 | 0.01 | 0.01 | 58 | 1011.6 |
| 20260508160834 | 60 | 214 | 9.0 | 11.0 | 0.00 | 0.01 | 0.01 | 57 | 1011.6 |
| 20260508160333 | 59 | 252 | 12.0 | 16.0 | 0.00 | 0.01 | 0.01 | 58 | 1011.7 |
| 20260508155829 | 58 | 286 | 9.0 | 14.0 | 0.00 | 0.01 | 0.01 | 61 | 1011.6 |
| 20260508155326 | 57 | 252 | 9.0 | 11.0 | 0.00 | 0.01 | 0.01 | 60 | 1011.8 |
| 20260508154823 | 57 | 258 | 9.0 | 9.0 | 0.00 | 0.01 | 0.01 | 60 | 1011.9 |
| 20260508154321 | 57 | 264 | 9.0 | 11.0 | 0.00 | 0.01 | 0.01 | 59 | 1011.8 |
| 20260508153816 | 56 | 271 | 9.0 | 11.0 | 0.00 | 0.01 | 0.01 | 62 | 1011.8 |
| 20260508153314 | 56 | 280 | 9.0 | 10.0 | 0.00 | 0.01 | 0.01 | 63 | 1011.8 |
| 20260508152810 | 56 | 244 | 10.0 | 10.0 | 0.00 | 0.01 | 0.01 | 63 | 1011.9 |
| 20260508152307 | 55 | 259 | 6.0 | 11.0 | 0.00 | 0.01 | 0.01 | 64 | 1011.9 |
| 20260508151803 | 55 | 250 | 8.0 | 9.0 | 0.00 | 0.01 | 0.01 | 63 | 1011.6 |
| 20260508151300 | 55 | 241 | 8.0 | 11.0 | 0.00 | 0.01 | 0.01 | 64 | 1011.9 |
| 20260508150756 | 56 | 236 | 10.0 | 14.0 | 0.00 | 0.01 | 0.01 | 62 | 1012.1 |
| 20260508150253 | 56 | 234 | 9.0 | 11.0 | 0.00 | 0.01 | 0.01 | 64 | 1011.9 |
| 20260508145749 | 55 | 264 | 9.0 | 14.0 | 0.00 | 0.01 | 0.01 | 63 | 1012.0 |
| 20260508145245 | 56 | 245 | 10.0 | 15.0 | 0.00 | 0.01 | 0.01 | 60 | 1011.9 |
| 20260508144742 | 56 | 252 | 9.0 | 13.0 | 0.00 | 0.01 | 0.01 | 63 | 1011.9 |
| 20260508144241 | 55 | 235 | 9.0 | 11.0 | 0.00 | 0.01 | 0.01 | 65 | 1011.9 |
| 20260508143737 | 54 | 256 | 5.0 | 7.0 | 0.00 | 0.01 | 0.01 | 67 | 1012.0 |
| 20260508143235 | 54 | 247 | 5.0 | 7.0 | 0.00 | 0.01 | 0.01 | 67 | 1011.7 |
| 20260508142730 | 54 | 236 | 6.0 | 7.0 | 0.00 | 0.01 | 0.01 | 67 | 1011.7 |
| 20260508142228 | 53 | 229 | 5.0 | 7.0 | 0.00 | 0.01 | 0.01 | 69 | 1011.8 |
| 20260508141724 | 53 | 252 | 6.0 | 8.0 | 0.00 | 0.01 | 0.01 | 68 | 1012.1 |
| 20260508141222 | 52 | 261 | 3.0 | 7.0 | 0.00 | 0.01 | 0.01 | 69 | 1011.7 |
| 20260508140719 | 52 | 254 | 4.0 | 6.0 | 0.00 | 0.01 | 0.01 | 69 | 1011.9 |
| 20260508140216 | 52 | 261 | 6.0 | 8.0 | 0.00 | 0.01 | 0.01 | 68 | 1012.1 |
| 20260508135712 | 52 | 249 | 8.0 | 10.0 | 0.00 | 0.01 | 0.01 | 67 | 1012.0 |
| 20260508135207 | 52 | 247 | 4.0 | 8.0 | 0.00 | 0.01 | 0.01 | 68 | 1011.9 |
| 20260508134704 | 51 | 243 | 8.0 | 9.0 | 0.00 | 0.01 | 0.01 | 67 | 1011.9 |
| 20260508134201 | 51 | 247 | 6.0 | 8.0 | 0.00 | 0.01 | 0.01 | 68 | 1011.9 |
| 20260508133658 | 51 | 263 | 6.0 | 10.0 | 0.00 | 0.01 | 0.01 | 68 | 1012.0 |
| 20260508133155 | 51 | 235 | 5.0 | 9.0 | 0.00 | 0.01 | 0.01 | 69 | 1012.0 |
| 20260508132653 | 51 | 248 | 4.0 | 7.0 | 0.00 | 0.01 | 0.01 | 70 | 1011.9 |
| 20260508132150 | 51 | 247 | 5.0 | 7.0 | 0.00 | 0.01 | 0.01 | 71 | 1011.9 |
| 20260508131645 | 51 | 256 | 3.0 | 7.0 | 0.00 | 0.01 | 0.01 | 71 | 1011.9 |
| 20260508131142 | 50 | 258 | 6.0 | 7.0 | 0.00 | 0.01 | 0.01 | 72 | 1012.1 |
| 20260508130639 | 50 | 252 | 8.0 | 9.0 | 0.00 | 0.01 | 0.01 | 71 | 1012.1 |
| 20260508130136 | 51 | 263 | 6.0 | 9.0 | 0.00 | 0.01 | 0.01 | 70 | 1011.9 |
| 20260508125631 | 51 | 245 | 6.0 | 7.0 | 0.00 | 0.01 | 0.01 | 72 | 1012.1 |
| 20260508125129 | 51 | 248 | 4.0 | 7.0 | 0.00 | 0.01 | 0.01 | 71 | 1012.0 |
| 20260508124626 | 51 | 251 | 4.0 | 7.0 | 0.00 | 0.01 | 0.01 | 70 | 1012.0 |
| 20260508124123 | 50 | 245 | 5.0 | 7.0 | 0.00 | 0.01 | 0.01 | 70 | 1011.7 |
| 20260508123621 | 50 | 223 | 4.0 | 8.0 | 0.00 | 0.01 | 0.01 | 70 | 1011.9 |
| 20260508123119 | 50 | 256 | 5.0 | 8.0 | 0.00 | 0.01 | 0.01 | 70 | 1012.1 |
| 20260508122615 | 50 | 239 | 6.0 | 8.0 | 0.00 | 0.01 | 0.01 | 70 | 1011.9 |
| 20260508122112 | 50 | 250 | 6.0 | 8.0 | 0.00 | 0.01 | 0.01 | 70 | 1011.8 |
| 20260508121610 | 49 | 226 | 5.0 | 7.0 | 0.00 | 0.01 | 0.01 | 71 | 1011.7 |
| 20260508121108 | 49 | 215 | 4.0 | 7.0 | 0.00 | 0.01 | 0.01 | 71 | 1011.8 |
| 20260508120605 | 49 | 257 | 7.0 | 8.0 | 0.00 | 0.01 | 0.01 | 71 | 1011.8 |
| 20260508120104 | 49 | 230 | 5.0 | 7.0 | 0.00 | 0.01 | 0.01 | 70 | 1011.8 |
| 20260508115600 | 49 | 207 | 3.0 | 6.0 | 0.00 | 0.01 | 0.01 | 72 | 1011.9 |
| 20260508115057 | 49 | 198 | 5.0 | 7.0 | 0.00 | 0.01 | 0.01 | 71 | 1011.7 |
| 20260508114554 | 49 | 203 | 4.0 | 7.0 | 0.00 | 0.01 | 0.01 | 71 | 1011.8 |
| 20260508114050 | 48 | 224 | 4.0 | 7.0 | 0.00 | 0.01 | 0.01 | 72 | 1011.9 |
| 20260508113548 | 48 | 209 | 4.0 | 6.0 | 0.00 | 0.01 | 0.01 | 73 | 1011.5 |
| 20260508113046 | 48 | 200 | 5.0 | 7.0 | 0.00 | 0.01 | 0.01 | 73 | 1011.7 |
| 20260508112541 | 48 | 189 | 6.0 | 7.0 | 0.00 | 0.01 | 0.01 | 73 | 1011.3 |
| 20260508112038 | 48 | 205 | 4.0 | 6.0 | 0.00 | 0.01 | 0.01 | 73 | 1011.7 |
| 20260508111536 | 48 | 240 | 5.0 | 7.0 | 0.00 | 0.01 | 0.01 | 72 | 1011.3 |
| 20260508111033 | 48 | 194 | 4.0 | 7.0 | 0.00 | 0.01 | 0.01 | 71 | 1011.4 |
| 20260508110531 | 48 | 220 | 3.0 | 7.0 | 0.00 | 0.01 | 0.01 | 70 | 1011.3 |
| 20260508110026 | 48 | 220 | 5.0 | 7.0 | 0.00 | 0.01 | 0.01 | 70 | 1011.4 |
| 20260508105521 | 48 | 224 | 4.0 | 4.0 | 0.00 | 0.01 | 0.01 | 71 | 1011.6 |
| 20260508105019 | 47 | 234 | 3.0 | 7.0 | 0.00 | 0.01 | 0.01 | 72 | 1011.1 |
| 20260508104517 | 47 | 218 | 4.0 | 6.0 | 0.00 | 0.01 | 0.01 | 73 | 1011.3 |
| 20260508104013 | 46 | 217 | 3.0 | 6.0 | 0.00 | 0.01 | 0.01 | 74 | 1011.4 |
| 20260508103510 | 46 | 214 | 4.0 | 4.0 | 0.00 | 0.01 | 0.01 | 74 | 1011.3 |
| 20260508103007 | 46 | 200 | 3.0 | 4.0 | 0.00 | 0.01 | 0.01 | 74 | 1011.3 |
| 20260508102505 | 47 | 191 | 4.0 | 4.0 | 0.00 | 0.01 | 0.01 | 72 | 1011.2 |
| 20260508102003 | 47 | 234 | 5.0 | 6.0 | 0.00 | 0.01 | 0.01 | 71 | 1011.3 |
| 20260508101500 | 47 | 229 | 4.0 | 4.0 | 0.00 | 0.01 | 0.01 | 71 | 1011.3 |
| 20260508100956 | 47 | 232 | 4.0 | 6.0 | 0.00 | 0.01 | 0.01 | 71 | 1011.4 |
| 20260508100455 | 47 | 243 | 4.0 | 6.0 | 0.00 | 0.01 | 0.01 | 71 | 1011.3 |
| 20260508095951 | 47 | 248 | 4.0 | 7.0 | 0.00 | 0.01 | 0.01 | 70 | 1011.2 |
| 20260508095449 | 47 | 236 | 5.0 | 7.0 | 0.00 | 0.01 | 0.01 | 70 | 1011.1 |
| 20260508094945 | 47 | 247 | 5.0 | 6.0 | 0.00 | 0.01 | 0.01 | 70 | 1011.0 |
| 20260508094442 | 47 | 222 | 7.0 | 8.0 | 0.00 | 0.01 | 0.01 | 70 | 1011.2 |
| 20260508093939 | 47 | 238 | 5.0 | 9.0 | 0.00 | 0.01 | 0.01 | 69 | 1011.2 |
| 20260508093436 | 47 | 225 | 4.0 | 7.0 | 0.00 | 0.01 | 0.01 | 70 | 1011.3 |
| 20260508092934 | 47 | 227 | 6.0 | 8.0 | 0.00 | 0.01 | 0.01 | 70 | 1011.1 |
| 20260508092432 | 47 | 226 | 4.0 | 8.0 | 0.00 | 0.01 | 0.01 | 69 | 1011.1 |
| 20260508091930 | 47 | 226 | 6.0 | 9.0 | 0.00 | 0.01 | 0.01 | 69 | 1011.4 |
| 20260508091426 | 48 | 235 | 7.0 | 9.0 | 0.00 | 0.01 | 0.01 | 69 | 1011.4 |
| 20260508090923 | 48 | 203 | 6.0 | 8.0 | 0.00 | 0.01 | 0.01 | 68 | 1011.4 |
| 20260508090422 | 48 | 233 | 5.0 | 10.0 | 0.00 | 0.01 | 0.01 | 68 | 1011.4 |
| 20260508085917 | 48 | 250 | 6.0 | 8.0 | 0.00 | 0.01 | 0.01 | 68 | 1011.2 |
| 20260508085415 | 48 | 239 | 7.0 | 9.0 | 0.00 | 0.01 | 0.01 | 68 | 1011.2 |
| 20260508084911 | 48 | 250 | 6.0 | 8.0 | 0.00 | 0.01 | 0.01 | 68 | 1011.3 |
| 20260508084408 | 48 | 220 | 4.0 | 8.0 | 0.00 | 0.01 | 0.01 | 68 | 1011.1 |
| 20260508083906 | 48 | 234 | 6.0 | 9.0 | 0.00 | 0.01 | 0.01 | 68 | 1010.9 |
| 20260508083403 | 48 | 241 | 5.0 | 8.0 | 0.00 | 0.01 | 0.01 | 68 | 1011.1 |
| 20260508082902 | 48 | 232 | 7.0 | 9.0 | 0.00 | 0.01 | 0.01 | 68 | 1011.3 |
| 20260508082400 | 48 | 229 | 4.0 | 8.0 | 0.00 | 0.01 | 0.01 | 68 | 1011.2 |
| 20260508081857 | 48 | 234 | 6.0 | 7.0 | 0.00 | 0.01 | 0.01 | 68 | 1011.2 |
| 20260508081354 | 48 | 245 | 8.0 | 9.0 | 0.00 | 0.01 | 0.01 | 68 | 1011.1 |
| 20260508080851 | 48 | 229 | 7.0 | 8.0 | 0.00 | 0.01 | 0.01 | 67 | 1011.5 |
| 20260508080349 | 48 | 210 | 5.0 | 8.0 | 0.00 | 0.01 | 0.01 | 68 | 1011.3 |
| 20260508075845 | 48 | 234 | 6.0 | 8.0 | 0.00 | 0.01 | 0.01 | 69 | 1011.1 |
| 20260508075342 | 48 | 227 | 4.0 | 8.0 | 0.00 | 0.01 | 0.01 | 69 | 1011.3 |
| 20260508074840 | 48 | 214 | 6.0 | 8.0 | 0.00 | 0.01 | 0.01 | 68 | 1011.5 |
| 20260508074337 | 48 | 219 | 6.0 | 8.0 | 0.00 | 0.01 | 0.01 | 69 | 1011.4 |
| 20260508073834 | 48 | 214 | 4.0 | 7.0 | 0.00 | 0.01 | 0.01 | 69 | 1011.4 |
| 20260508073332 | 48 | 215 | 5.0 | 7.0 | 0.00 | 0.01 | 0.01 | 69 | 1011.4 |
| 20260508072828 | 48 | 222 | 5.0 | 7.0 | 0.00 | 0.01 | 0.01 | 70 | 1011.5 |
| 20260508072325 | 48 | 207 | 3.0 | 6.0 | 0.00 | 0.01 | 0.01 | 71 | 1011.6 |
| 20260508071822 | 48 | 210 | 4.0 | 6.0 | 0.00 | 0.01 | 0.01 | 72 | 1011.6 |
| 20260508071321 | 48 | 194 | 3.0 | 6.0 | 0.00 | 0.01 | 0.01 | 72 | 1011.5 |
| 20260508070817 | 48 | 205 | 4.0 | 6.0 | 0.00 | 0.01 | 0.01 | 72 | 1011.3 |
| 20260508070316 | 48 | 232 | 3.0 | 6.0 | 0.00 | 0.01 | 0.01 | 71 | 1011.6 |
| 20260508065813 | 49 | 214 | 4.0 | 6.0 | 0.00 | 0.01 | 0.01 | 71 | 1011.5 |
| 20260508065311 | 49 | 216 | 5.0 | 7.0 | 0.00 | 0.01 | 0.01 | 70 | 1011.7 |
| 20260508064809 | 49 | 219 | 2.0 | 6.0 | 0.00 | 0.01 | 0.01 | 70 | 1012.0 |
| 20260508064306 | 49 | 227 | 4.0 | 6.0 | 0.00 | 0.01 | 0.01 | 70 | 1011.6 |
| 20260508063803 | 49 | 232 | 4.0 | 7.0 | 0.00 | 0.01 | 0.01 | 70 | 1011.6 |
| 20260508063302 | 49 | 214 | 4.0 | 6.0 | 0.00 | 0.01 | 0.01 | 70 | 1012.0 |
| 20260508062758 | 49 | 231 | 4.0 | 6.0 | 0.00 | 0.01 | 0.01 | 71 | 1011.6 |
| 20260508062256 | 49 | 233 | 2.0 | 4.0 | 0.00 | 0.01 | 0.01 | 71 | 1011.9 |
| 20260508061752 | 49 | 234 | 4.0 | 4.0 | 0.00 | 0.01 | 0.01 | 71 | 1012.0 |
| 20260508061249 | 49 | 217 | 2.0 | 4.0 | 0.00 | 0.01 | 0.01 | 71 | 1011.8 |
| 20260508060746 | 49 | 226 | 2.0 | 2.0 | 0.00 | 0.01 | 0.01 | 71 | 1012.0 |
| 20260508060244 | 49 | 244 | 2.0 | 3.0 | 0.00 | 0.01 | 0.01 | 71 | 1011.8 |
| 20260508055739 | 49 | 250 | 2.0 | 2.0 | 0.00 | 0.01 | 0.01 | 71 | 1011.9 |
| 20260508055237 | 49 | 248 | 2.0 | 3.0 | 0.00 | 0.01 | 0.01 | 70 | 1011.8 |
| 20260508054733 | 50 | 241 | 2.0 | 3.0 | 0.00 | 0.01 | 0.01 | 69 | 1011.8 |
| 20260508054231 | 50 | 226 | 3.0 | 4.0 | 0.00 | 0.01 | 0.01 | 69 | 1012.1 |
| 20260508053728 | 50 | 217 | 4.0 | 4.0 | 0.00 | 0.01 | 0.01 | 68 | 1011.9 |
| 20260508053225 | 50 | 221 | 3.0 | 4.0 | 0.00 | 0.01 | 0.01 | 68 | 1011.9 |
| 20260508052722 | 50 | 217 | 5.0 | 7.0 | 0.00 | 0.01 | 0.01 | 68 | 1012.0 |
| 20260508052219 | 50 | 217 | 4.0 | 6.0 | 0.00 | 0.01 | 0.01 | 69 | 1011.9 |
| 20260508051715 | 50 | 220 | 4.0 | 6.0 | 0.00 | 0.01 | 0.01 | 69 | 1012.1 |
| 20260508051211 | 50 | 221 | 5.0 | 6.0 | 0.00 | 0.01 | 0.01 | 69 | 1012.0 |
| 20260508050708 | 50 | 217 | 7.0 | 8.0 | 0.00 | 0.01 | 0.01 | 69 | 1012.1 |
| 20260508050205 | 51 | 214 | 4.0 | 6.0 | 0.00 | 0.01 | 0.01 | 69 | 1012.2 |
| 20260508045700 | 51 | 263 | 4.0 | 6.0 | 0.00 | 0.01 | 0.01 | 69 | 1012.2 |
| 20260508045159 | 50 | 218 | 3.0 | 4.0 | 0.00 | 0.01 | 0.01 | 70 | 1012.2 |
| 20260508044655 | 50 | 194 | 1.0 | 2.0 | 0.00 | 0.01 | 0.01 | 73 | 1012.0 |
| 20260508044152 | 50 | 286 | 2.0 | 2.0 | 0.00 | 0.01 | 0.01 | 72 | 1012.3 |
| 20260508043648 | 50 | 187 | 4.0 | 6.0 | 0.07 | 0.01 | 0.01 | 70 | 1012.2 |
| 20260508043146 | 50 | 334 | 0.0 | 3.0 | 0.07 | 0.01 | 0.01 | 73 | 1012.3 |
| 20260508042642 | 50 | 326 | 10.0 | 14.0 | 0.00 | 0.00 | 0.00 | 76 | 1012.8 |
| 20260508042140 | 50 | 16 | 10.0 | 13.0 | 0.00 | 0.00 | 0.00 | 77 | 1012.6 |
| 20260508041636 | 50 | 12 | 4.0 | 4.0 | 0.00 | 0.00 | 0.00 | 73 | 1012.1 |
| 20260508041133 | 50 | 211 | 2.0 | 2.0 | 0.00 | 0.00 | 0.00 | 71 | 1012.1 |
| 20260508040629 | 50 | 198 | 2.0 | 3.0 | 0.00 | 0.00 | 0.00 | 72 | 1011.7 |
| 20260508040127 | 50 | 181 | 3.0 | 3.0 | 0.00 | 0.00 | 0.00 | 72 | 1011.7 |
| 20260508035624 | 50 | 168 | 3.0 | 4.0 | 0.00 | 0.00 | 0.00 | 73 | 1011.8 |
| 20260508035121 | 50 | 172 | 4.0 | 4.0 | 0.00 | 0.00 | 0.00 | 72 | 1011.6 |
| 20260508034617 | 50 | 177 | 4.0 | 6.0 | 0.00 | 0.00 | 0.00 | 72 | 1011.5 |
| 20260508034115 | 50 | 184 | 4.0 | 4.0 | 0.00 | 0.00 | 0.00 | 73 | 1012.0 |
| 20260508033612 | 50 | 194 | 4.0 | 4.0 | 0.00 | 0.00 | 0.00 | 73 | 1011.9 |
| 20260508033111 | 49 | 190 | 4.0 | 4.0 | 0.00 | 0.00 | 0.00 | 73 | 1011.8 |
| 20260508032607 | 49 | 175 | 4.0 | 4.0 | 0.00 | 0.00 | 0.00 | 73 | 1011.7 |
| 20260508032105 | 50 | 194 | 4.0 | 4.0 | 0.00 | 0.00 | 0.00 | 72 | 1011.9 |
| 20260508031601 | 50 | 209 | 4.0 | 6.0 | 0.00 | 0.00 | 0.00 | 72 | 1011.9 |
| 20260508031057 | 50 | 208 | 4.0 | 6.0 | 0.00 | 0.00 | 0.00 | 71 | 1011.8 |
| 20260508030554 | 50 | 204 | 5.0 | 6.0 | 0.00 | 0.00 | 0.00 | 70 | 1012.0 |
| 20260508030052 | 50 | 200 | 3.0 | 4.0 | 0.00 | 0.00 | 0.00 | 69 | 1011.9 |
| 20260508025548 | 50 | 219 | 3.0 | 4.0 | 0.00 | 0.00 | 0.00 | 69 | 1012.1 |
| 20260508025045 | 50 | 220 | 4.0 | 6.0 | 0.00 | 0.00 | 0.00 | 69 | 1012.3 |
| 20260508024541 | 50 | 249 | 5.0 | 7.0 | 0.00 | 0.00 | 0.00 | 69 | 1012.3 |
| 20260508024038 | 51 | 210 | 5.0 | 7.0 | 0.00 | 0.00 | 0.00 | 69 | 1012.0 |
| 20260508023534 | 51 | 219 | 5.0 | 7.0 | 0.00 | 0.00 | 0.00 | 69 | 1012.0 |
| 20260508023032 | 51 | 202 | 4.0 | 6.0 | 0.00 | 0.00 | 0.00 | 69 | 1012.2 |
| 20260508022527 | 51 | 216 | 2.0 | 3.0 | 0.00 | 0.00 | 0.00 | 67 | 1012.0 |
| 20260508022025 | 51 | 227 | 4.0 | 4.0 | 0.00 | 0.00 | 0.00 | 67 | 1012.1 |
| 20260508021521 | 51 | 232 | 3.0 | 4.0 | 0.00 | 0.00 | 0.00 | 66 | 1012.1 |
| 20260508021016 | 51 | 219 | 2.0 | 3.0 | 0.00 | 0.00 | 0.00 | 67 | 1012.2 |
| 20260508020515 | 51 | 257 | 2.0 | 2.0 | 0.00 | 0.00 | 0.00 | 67 | 1012.1 |
| 20260508020012 | 51 | 247 | 2.0 | 3.0 | 0.00 | 0.00 | 0.00 | 66 | 1012.1 |
| 20260508015509 | 51 | 277 | 2.0 | 3.0 | 0.00 | 0.00 | 0.00 | 67 | 1012.0 |
| 20260508015006 | 51 | 268 | 2.0 | 6.0 | 0.00 | 0.00 | 0.00 | 66 | 1012.1 |
| 20260508014502 | 51 | 245 | 3.0 | 6.0 | 0.00 | 0.00 | 0.00 | 65 | 1011.8 |
| 20260508013959 | 51 | 252 | 3.0 | 4.0 | 0.00 | 0.00 | 0.00 | 65 | 1011.6 |
| 20260508013455 | 51 | 251 | 4.0 | 4.0 | 0.00 | 0.00 | 0.00 | 65 | 1012.0 |
| 20260508012952 | 51 | 278 | 4.0 | 4.0 | 0.00 | 0.00 | 0.00 | 65 | 1012.1 |
| 20260508012449 | 51 | 258 | 4.0 | 4.0 | 0.00 | 0.00 | 0.00 | 65 | 1012.1 |
| 20260508011946 | 52 | 259 | 3.0 | 6.0 | 0.00 | 0.00 | 0.00 | 64 | 1011.9 |
| 20260508011444 | 52 | 259 | 4.0 | 6.0 | 0.00 | 0.00 | 0.00 | 64 | 1011.9 |
| 20260508010942 | 52 | 254 | 3.0 | 4.0 | 0.00 | 0.00 | 0.00 | 64 | 1011.7 |
| 20260508010438 | 52 | 246 | 4.0 | 6.0 | 0.00 | 0.00 | 0.00 | 63 | 1011.8 |
| 20260508005936 | 52 | 270 | 4.0 | 6.0 | 0.00 | 0.00 | 0.00 | 62 | 1012.0 |
| 20260508005432 | 52 | 258 | 4.0 | 7.0 | 0.00 | 0.00 | 0.00 | 61 | 1011.8 |
| 20260508004929 | 52 | 260 | 4.0 | 6.0 | 0.00 | 0.00 | 0.00 | 61 | 1012.0 |
| 20260508004425 | 52 | 249 | 4.0 | 6.0 | 0.00 | 0.00 | 0.00 | 61 | 1012.1 |
| 20260508003922 | 52 | 251 | 2.0 | 3.0 | 0.00 | 0.00 | 0.00 | 60 | 1012.1 |
| 20260508003419 | 52 | 232 | 3.0 | 4.0 | 0.00 | 0.00 | 0.00 | 59 | 1012.0 |
| 20260508002916 | 53 | 246 | 2.0 | 3.0 | 0.00 | 0.00 | 0.00 | 59 | 1012.2 |
| 20260508002413 | 53 | 264 | 4.0 | 4.0 | 0.00 | 0.00 | 0.00 | 58 | 1012.1 |
| 20260508001909 | 53 | 253 | 3.0 | 3.0 | 0.00 | 0.00 | 0.00 | 58 | 1012.0 |
| 20260508001405 | 53 | 257 | 4.0 | 6.0 | 0.00 | 0.00 | 0.00 | 58 | 1012.2 |
| 20260508000901 | 53 | 276 | 6.0 | 7.0 | 0.00 | 0.00 | 0.00 | 58 | 1012.0 |
| 20260508000358 | 53 | 274 | 4.0 | 6.0 | 0.00 | 0.00 | 0.00 | 58 | 1012.1 |
| 20260507235854 | 53 | 263 | 7.0 | 10.0 | 0.00 | 0.00 | 0.00 | 55 | 1012.4 |
| 20260507235352 | 53 | 283 | 4.0 | 4.0 | 0.00 | 0.00 | 0.00 | 56 | 1012.2 |
| 20260507234849 | 53 | 328 | 7.0 | 9.0 | 0.00 | 0.00 | 0.00 | 57 | 1012.3 |
| 20260507234345 | 53 | 312 | 7.0 | 8.0 | 0.00 | 0.00 | 0.00 | 56 | 1012.1 |
| 20260507233842 | 54 | 318 | 8.0 | 13.0 | 0.00 | 0.00 | 0.00 | 54 | 1012.0 |
| 20260507233339 | 54 | 316 | 9.0 | 11.0 | 0.00 | 0.00 | 0.00 | 54 | 1012.4 |
| 20260507232837 | 54 | 303 | 13.0 | 14.0 | 0.00 | 0.00 | 0.00 | 52 | 1012.2 |
| 20260507232333 | 55 | 310 | 11.0 | 15.0 | 0.00 | 0.00 | 0.00 | 49 | 1012.1 |
| 20260507231831 | 55 | 298 | 9.0 | 9.0 | 0.00 | 0.00 | 0.00 | 46 | 1012.2 |
| 20260507231327 | 55 | 297 | 7.0 | 8.0 | 0.00 | 0.00 | 0.00 | 47 | 1011.8 |
| 20260507230824 | 55 | 247 | 2.0 | 6.0 | 0.00 | 0.00 | 0.00 | 46 | 1011.9 |
| 20260507230321 | 56 | 298 | 6.0 | 11.0 | 0.00 | 0.00 | 0.00 | 43 | 1012.0 |
| 20260507225821 | 56 | 276 | 8.0 | 9.0 | 0.00 | 0.00 | 0.00 | 45 | 1011.8 |
| 20260507225317 | 56 | 286 | 7.0 | 9.0 | 0.00 | 0.00 | 0.00 | 43 | 1012.0 |
| 20260507224814 | 56 | 251 | 6.0 | 8.0 | 0.00 | 0.00 | 0.00 | 45 | 1012.0 |
| 20260507224310 | 56 | 279 | 6.0 | 8.0 | 0.00 | 0.00 | 0.00 | 45 | 1011.8 |
| 20260507223806 | 56 | 271 | 5.0 | 8.0 | 0.00 | 0.00 | 0.00 | 44 | 1011.8 |
| 20260507223303 | 56 | 275 | 5.0 | 7.0 | 0.00 | 0.00 | 0.00 | 45 | 1011.8 |
| 20260507222800 | 56 | 250 | 7.0 | 10.0 | 0.00 | 0.00 | 0.00 | 42 | 1011.9 |
| 20260507222256 | 56 | 265 | 9.0 | 13.0 | 0.00 | 0.00 | 0.00 | 43 | 1012.0 |
| 20260507221753 | 57 | 271 | 6.0 | 9.0 | 0.00 | 0.00 | 0.00 | 40 | 1012.2 |
| 20260507221249 | 57 | 310 | 5.0 | 8.0 | 0.00 | 0.00 | 0.00 | 40 | 1011.7 |
| 20260507220746 | 57 | 278 | 9.0 | 10.0 | 0.00 | 0.00 | 0.00 | 41 | 1011.8 |
| 20260507220245 | 57 | 293 | 9.0 | 13.0 | 0.00 | 0.00 | 0.00 | 42 | 1011.8 |
| 20260507215740 | 58 | 286 | 10.0 | 10.0 | 0.00 | 0.00 | 0.00 | 40 | 1011.9 |
| 20260507215238 | 58 | 263 | 2.0 | 6.0 | 0.00 | 0.00 | 0.00 | 40 | 1011.8 |
| 20260507214735 | 58 | 298 | 10.0 | 17.0 | 0.00 | 0.00 | 0.00 | 39 | 1011.8 |
| 20260507214232 | 58 | 291 | 8.0 | 11.0 | 0.00 | 0.00 | 0.00 | 40 | 1011.7 |
| 20260507213727 | 58 | 311 | 8.0 | 13.0 | 0.00 | 0.00 | 0.00 | 43 | 1011.7 |
| 20260507213225 | 57 | 297 | 7.0 | 9.0 | 0.00 | 0.00 | 0.00 | 40 | 1011.9 |
| 20260507212721 | 57 | 301 | 3.0 | 3.0 | 0.00 | 0.00 | 0.00 | 40 | 1012.0 |
| 20260507212217 | 56 | 326 | 6.0 | 8.0 | 0.00 | 0.00 | 0.00 | 42 | 1011.9 |
| 20260507211714 | 57 | 312 | 9.0 | 11.0 | 0.00 | 0.00 | 0.00 | 41 | 1011.7 |
| 20260507211210 | 57 | 299 | 12.0 | 15.0 | 0.00 | 0.00 | 0.00 | 41 | 1011.9 |
| 20260507210708 | 58 | 297 | 15.0 | 17.0 | 0.00 | 0.00 | 0.00 | 40 | 1011.8 |
| 20260507210204 | 57 | 301 | 8.0 | 11.0 | 0.00 | 0.00 | 0.00 | 42 | 1012.0 |